This demonstration page uses our WeatherBlox Daily Observations layout. Learn more.

Left ArrowRight Arrow

38.83388, -104.82136

Hourly Observations for January 25, 2017

Temp ( °F °C ) Dew Point ( °F °C ) Humidity (%) Winds ( mph kmh ) Pressure ( in mb ) Visibility ( mi km ) Precip ( " mm )
12:38 am 00:38 Cloudy with Light Snow Showers 18 -8 14 -10 86 86 ENE 3 6 29.97 1015 10 16 0.00 0.00
12:58 am 00:58 Cloudy with Light Snow Showers 18 -7.7 15 -9.5 87 87 Calm 29.56 1001 10 16 0.00 0.00
1:03 am 01:03 Cloudy with Light Snow Showers 18 -8 16 -9 93 93 SE 3 6 29.97 1015 8 13 0.00 0.00
1:08 am 01:08 Cloudy with Light Snow Showers 18 -8 16 -9 93 93 Calm 29.97 1015 7 11 0.00 0.00
1:23 am 01:23 Mostly Cloudy with Light Snow Showers 18 -8 18 -8 100 100 SSE 5 7 29.97 1015 3 5 0.00 0.00
1:38 am 01:38 Mostly Cloudy with Light Snow Showers 18 -8 16 -9 93 93 SE 3 6 29.97 1015 7 11 0.00 0.00
1:50 am 01:50 Mostly Cloudy with Freezing Fog 18 -8 18 -8 100 100 SSE 5 7 30.00 1016 3 5 0.00 0.00
1:58 am 01:58 Mostly Cloudy with Freezing Fog 18 -8 17 -8.4 97 97 SE 6 9 29.60 1002 1 2 0.00 0.00
2:00 am 02:00 Mostly Cloudy with Light Snow Showers 18 -8 16 -9 93 93 SE 5 7 30.00 1016 3 5 0.00 0.00
2:16 am 02:16 Mostly Cloudy with Mist and Fog 18 -8 16 -9 93 93 Calm 30.00 1016 2 2 0.00 0.00
2:41 am 02:41 Mostly Cloudy with Light Snow Showers 18 -8 16 -9 93 93 SSE 3 6 30.00 1016 6 10 0.00 0.00
2:56 am 02:56 Mostly Cloudy with Light Snow Showers 18 -8 16 -9 93 93 SSE 3 6 30.00 1016 0 0 0.00 0.00
3:06 am 03:06 Mostly Cloudy 18 -8 18 -8 100 100 Calm 30.00 1016 3 5 0.00 0.00
3:09 am 03:09 Mostly Cloudy with Light Snow Showers 18 -8 16 -9 93 93 Calm 30.00 1016 3 5 0.00 0.00
3:27 am 03:27 Mostly Cloudy with Freezing Fog 18 -8 16 -9 93 93 Calm 30.00 1016 0 0 0.00 0.00
3:42 am 03:42 Mostly Cloudy 16 -9 14 -10 93 93 Calm 30.03 1017 10 16 0.00 0.00
3:58 am 03:58 Mostly Cloudy 17 -8.5 15 -9.2 95 95 Calm 29.62 1003 10 16 0.00 0.00
4:05 am 04:05 Mostly Cloudy with Light Snow Showers 16 -9 16 -9 100 100 Calm 30.03 1017 10 16 0.00 0.00
4:20 am 04:20 Mostly Cloudy with Light Snow Showers 18 -8 16 -9 93 93 SSE 7 11 30.00 1016 3 5 0.00 0.00
4:58 am 04:58 Mostly Cloudy with Light Snow Showers 16 -9 15 -9.6 95 95 S 5 7 29.65 1004 1 2 0.00 0.00
5:43 am 05:43 Mostly Cloudy with Light Snow Showers 16 -9 14 -10 93 93 S 3 6 30.03 1017 4 6 0.00 0.00
5:53 am 05:53 Mostly Cloudy 16 -9 14 -10 93 93 Calm 30.03 1017 7 11 0.00 0.00
5:58 am 05:58 Mostly Cloudy 15 -9.5 13 -10.3 94 94 Calm 29.65 1004 9 14 0.00 0.00
6:33 am 06:33 Partly Cloudy 14 -10 12 -11 92 92 Calm 30.09 1019 10 16 0.00 0.00
6:43 am 06:43 Mostly Cloudy 14 -10 14 -10 100 100 N 5 7 30.09 1019 9 14 0.00 0.00
6:58 am 06:58 Mostly Cloudy 14 -9.8 13 -10.6 94 94 N 3 6 29.69 1005 8 13 0.00 0.00
7:38 am 07:38 Mostly Cloudy 14 -10 12 -11 92 92 N 3 6 30.09 1019 10 16 0.00 0.00
7:58 am 07:58 Mostly Cloudy 14 -10.2 12 -11.1 93 93 NW 3 6 29.71 1006 10 16 0.00 0.00
8:15 am 08:15 Mostly Cloudy with Light Snow 14 -10 12 -11 92 92 Calm 30.12 1020 10 16 0.00 0.00
8:44 am 08:44 Partly Cloudy 16 -9 16 -9 100 100 N 5 7 30.09 1019 10 16 0.00 0.00
8:58 am 08:58 Mostly Sunny 16 -8.9 14 -9.8 93 93 E 3 6 29.73 1007 10 16 0.00 0.00
9:18 am 09:18 Mostly Cloudy 16 -9 14 -10 93 93 ENE 3 6 30.09 1019 10 16 0.00 0.00
9:58 am 09:58 Mostly Cloudy 17 -8.5 15 -9.3 94 94 NE 3 6 29.74 1007 10 16 0.00 0.00
10:08 am 10:08 Partly Cloudy 18 -8 16 -9 93 93 ENE 5 7 30.06 1018 10 16 0.00 0.00
10:18 am 10:18 Mostly Cloudy 18 -8 18 -8 100 100 ESE 5 7 30.06 1018 10 16 0.00 0.00
10:38 am 10:38 Partly Cloudy 18 -8 18 -8 100 100 Calm 30.06 1018 10 16 0.00 0.00
10:58 am 10:58 Mostly Cloudy 18 -7.6 16 -8.7 92 92 ESE 7 11 29.76 1008 10 16 0.00 0.00
11:13 am 11:13 Mostly Cloudy 21 -6 16 -9 80 80 ESE 8 13 30.03 1017 10 16 0.00 0.00
11:23 am 11:23 Mostly Cloudy 19 -7 14 -10 79 79 SE 5 7 30.03 1017 10 16 0.00 0.00
11:58 am 11:58 Mostly Cloudy 20 -6.4 14 -9.8 77 77 SE 7 11 29.72 1007 10 16 0.00 0.00
12:34 pm 12:34 Mostly Cloudy with Light Snow Showers 19 -7 14 -10 79 79 SE 3 6 30.03 1017 10 16 0.00 0.00
12:51 pm 12:51 Partly Cloudy 19 -7 14 -10 79 79 SE 7 11 30.03 1017 10 16 0.00 0.00
12:58 pm 12:58 Mostly Sunny 20 -6.6 15 -9.6 79 79 SE 8 13 29.72 1006 10 16 0.00 0.00
1:58 pm 13:58 Partly Cloudy 21 -6 16 -9.1 79 79 SSE 7 11 29.72 1006 10 16 0.00 0.00
2:58 pm 14:58 Mostly Cloudy 22 -5.3 15 -9.3 74 74 Calm 29.74 1007 10 16 0.00 0.00
3:58 pm 15:58 Mostly Cloudy 22 -5.8 16 -9.1 78 78 SE 7 11 29.76 1008 10 16 0.00 0.00
4:58 pm 16:58 Mostly Cloudy 20 -6.9 16 -9.1 85 85 S 5 7 29.80 1009 10 16 0.00 0.00
5:58 pm 17:58 Partly Cloudy 19 -7 13 -10.7 75 75 Calm 29.83 1010 10 16 0.00 0.00
6:58 pm 18:58 Clear 19 -7.1 12 -11.1 73 73 S 3 6 29.84 1010 10 16 0.00 0.00
7:58 pm 19:58 Partly Cloudy 18 -7.8 12 -11.3 76 76 NW 3 6 29.89 1012 10 16 0.00 0.00
8:03 pm 20:03 Mostly Cloudy 18 -8 12 -11 79 79 WNW 3 6 30.18 1022 10 16 0.00 0.00
8:43 pm 20:43 Mostly Cloudy with Light Snow 18 -8 14 -10 86 86 Calm 30.18 1022 10 16 0.00 0.00
8:53 pm 20:53 Mostly Cloudy with Light Snow 18 -8 16 -9 93 93 Calm 30.18 1022 10 16 0.00 0.00
8:58 pm 20:58 Mostly Cloudy with Light Snow 17 -8.2 15 -9.5 90 90 Calm 29.88 1012 10 16 0.00 0.00
9:43 pm 21:43 Cloudy with Light Snow 18 -8 14 -10 86 86 S 3 6 30.24 1024 10 16 0.00 0.00
9:58 pm 21:58 Mostly Cloudy with Light Snow 17 -8.4 14 -10.2 87 87 S 8 13 29.90 1013 10 16 0.00 0.00
10:03 pm 22:03 Partly Cloudy with Scattered Snow Showers 18 -8 14 -10 86 86 S 7 11 30.24 1024 10 16 0.00 0.00
10:58 pm 22:58 Mostly Clear with Light Snow Showers 16 -8.9 13 -10.4 89 89 Calm 29.91 1013 10 16 0.00 0.00
10:59 pm 22:59 Mostly Clear with Light Snow Showers 16 -9 14 -10 93 93 Calm 30.27 1025 10 16 0.00 0.00
11:09 pm 23:09 Mostly Cloudy with Light Snow Showers 16 -9 14 -10 93 93 SSE 6 9 30.27 1025 10 16 0.00 0.00
11:45 pm 23:45 Mostly Cloudy 16 -9 12 -11 86 86 SE 8 13 30.27 1025 10 16 0.00 0.00
11:58 pm 23:58 Mostly Cloudy 16 -8.9 12 -11.3 83 83 Calm 29.91 1013 10 16 0.00 0.00

Powered by AerisWeather